Starlink 5546

operational
NORAD ID: 55632 Int'l Des: 2023-021 Owner: SPXS Country: US Constellation: starlink
LEOCIRCULAR

Starlink 5546について

説明を読み込み中...

リアルタイム位置

3D地球を読み込み中...

次回通過

高度履歴

Altitude vs Time

uPlot chart will show altitude changes over time

軌道要素

1 55632U 23021E 25257.48121141 .00000814 00000-0 76011-4 0 9994
2 55632 69.9982 288.7478 0003176 269.9291 90.1504 14.98328554141908
Epoch: Sep 14, 2025 • Age: 26 hours

現在のステータス

高度 581.3 km
速度 7.57 km/s
衛星直下点 50.07°N, 115.48°E
打ち上げ日 Feb 17, 2023
運用期間 2.5 years
タイプ internet

技術仕様

分類 Payload
質量 305.00 kg
乾燥質量 290.00 kg
総質量 305.00 kg
長さ 0.20 m
直径 2.80 m
スパン 9.00 m
形状 Box + pan
製造者 SPXS
バスタイプ Starlink
フェーズステータス In Orbit
所有者/国 SPXS/US

大規模コンステレーション

Loading constellations...